SCP
0 0 0 0 0 0 0 0 0 0 0 0 0 0 0 0 0 -0 0 -1 -1 -1 -1 -1 -0 -0 -0 -0 0 0 0 0
0 0 0 0 -0 0 0 0 0 0 -0 0 0 0 -0 -0 0 -0 0 0 -1 -1 -1 -1 -0 -0 -0 -1 -0 0 0 0
0 0 0 0 0 0 0 0 0 -0 -0 0 0 0 0 0 0 0 0 -0 0 0 -1 -1 -0 -0 -0 -1 -1 0 0 0
0 0 0 0 0 0 0 0 0 0 -0 0 0 0 0 0 0 0 0 0 0 0 -1 -1 -0 -0 -0 -2 -1 -0 1 1
0 0 0 0 0 0 0 0 0 0 0 0 0 0 0 0 0 1 1 1 1 1 0 0 0 0 0 -1 -1 -1 1 1
0 0 0 0 0 0 0 0 0 0 0 0 0 0 0 0 0 1 4 3 2 2 1 1 1 0 0 0 -1 -0 0 1
0 0 0 0 0 0 0 0 0 0 0 1 0 0 0 1 3 2 2 2 2 2 2 1 2 1 1 0 1 0 0 1
0 0 0 0 0 0 0 0 0 0 1 1 2 4 4 3 3 1 1 1 1 1 1 2 2 2 2 1 1 1 1 1
0 -0 0 0 0 0 0 1 1 1 4 2 3 3 3 2 1 1 0 0 0 1 0 0 1 1 2 2 2 1 1 1
0 0 0 0 0 0 1 2 2 3 3 3 3 1 2 1 1 0 0 0 0 0 0 0 0 1 2 3 3 1 1 1
0 0 0 0 0 0 1 1 1 1 1 2 1 0 0 0 0 0 0 0 0 0 0 0 0 1 1 1 1 2 1 2
0 0 0 0 0 0 0 1 1 0 1 0 1 0 0 0 0 0 0 0 0 0 0 0 0 0 0 0 1 1 1 1
0 0 0 0 0 0 0 0 0 0 0 0 0 0 0 0 0 0 0 0 0 0 0 0 0 0 0 0 0 0 0 1
0 0 0 1 0 0 0 0 0 -0 0 0 0 0 0 0 0 0 0 0 0 0 0 0 0 0 0 0 0 0 0 0
0 1 -0 0 0 -0 0 0 -0 -0 0 0 0 0 0 0 0 0 0 0 0 0 0 0 0 0 0 0 0 0 0 0
0 0 0 0 0 0 0 0 0 0 0 0 0 0 0 0 0 0 0 0 0 0 0 0 0 0 0 0 0 0 0 0
0 0 0 0 0 0 0 0 0 0 0 0 0 0 0 0 0 0 0 0 0 0 0 0 0 0 0 0 0 0 0 0
0 0 0 0 0 0 0 0 0 0 0 0 0 0 0 0 0 0 0 0 -0 -0 0 0 0 0 0 0 0 0 0 0
0 0 0 0 0 0 0 0 0 0 0 0 0 0 0 0 0 0 0 0 0 -0 -0 0 0 0 0 0 0 0 0 0
Wind_Speed_500mb
36 39 21 39 25 19 12 16 4 10 16 16 22 23 29 58 52 56 62 82 99 103 103 98 90 86 84 72 65 65 68 74
40 36 46 17 13 14 6 15 11 13 5 10 10 3 23 41 68 79 84 85 89 99 105 101 94 89 85 75 64 60 63 76
19 31 35 30 23 12 11 6 11 6 12 23 16 6 13 10 35 46 27 37 79 90 101 105 97 92 87 83 72 63 58 65
36 33 17 39 27 20 12 19 5 10 12 6 29 34 19 17 60 44 42 35 23 58 94 95 100 88 86 85 80 69 61 60
17 18 25 19 36 21 11 14 17 7 7 6 22 24 49 42 59 58 63 44 41 13 90 90 91 90 82 81 76 68 63 65
11 13 9 6 24 39 18 15 17 15 10 11 16 29 55 45 32 57 62 56 53 56 55 70 84 86 86 85 79 71 67 68
18 28 31 32 33 41 26 16 16 15 8 14 8 35 41 57 55 57 50 50 46 47 50 34 65 76 80 83 87 77 73 74
19 27 28 31 36 30 44 19 12 13 23 8 64 75 74 55 61 53 51 43 30 27 31 38 27 18 70 75 83 81 80 78
13 14 21 21 15 17 11 29 9 22 9 19 36 43 50 56 53 50 44 31 31 28 17 15 17 13 16 42 65 78 82 81
6 11 8 8 45 46 54 46 37 36 24 38 46 58 65 59 47 40 33 32 29 27 22 16 13 15 5 7 19 67 77 83
4 6 14 25 25 25 15 26 30 21 22 24 53 66 55 45 41 32 31 32 32 26 25 23 13 13 21 19 24 25 74 77
6 4 2 12 23 32 16 13 31 31 22 30 18 13 7 27 29 27 24 25 33 34 22 17 21 20 24 23 25 20 29 72
7 9 8 20 28 26 11 8 17 28 28 35 23 17 17 13 17 22 25 26 29 36 32 29 32 32 30 29 26 24 29 44
6 4 1 50 15 11 10 30 29 35 31 25 32 26 21 14 16 17 27 30 31 37 40 36 35 32 30 28 28 30 37 46
9 9 19 46 42 39 28 26 35 33 27 30 28 26 17 15 17 20 25 27 29 33 41 43 41 39 35 36 33 30 34 31
12 19 25 45 33 32 30 27 26 23 24 24 26 19 18 19 27 29 30 35 37 39 39 41 41 38 38 36 37 31 29 33
17 42 17 32 38 37 29 23 21 15 16 20 26 22 28 30 35 37 41 43 44 41 39 38 38 36 35 39 35 34 30 28
6 27 21 24 40 30 27 22 28 28 14 13 11 19 26 27 26 29 29 29 28 31 30 32 34 33 36 31 36 32 32 29
14 32 29 27 32 23 29 30 30 31 26 17 15 9 14 14 13 13 22 22 22 28 28 28 28 29 29 34 34 36 32 36
Wind_Direction_500mb
230 249 236 251 256 223 228 206 244 262 272 47 141 133 122 142 205 177 171 194 191 191 194 193 196 202 204 207 211 210 204 200
245 234 252 219 228 256 254 212 231 284 42 318 45 85 174 179 196 168 186 195 193 188 192 195 196 202 204 208 211 212 210 205
279 234 225 245 243 239 179 203 196 218 269 183 187 251 306 344 151 182 165 208 201 190 192 196 194 198 203 208 208 211 212 213
245 262 230 228 235 204 184 251 256 142 275 205 133 243 34 64 109 94 69 78 83 194 187 186 193 193 201 208 208 212 217 217
268 284 265 234 227 233 191 187 230 162 261 176 134 103 68 72 66 67 73 74 58 108 181 183 188 191 196 208 210 212 218 222
209 241 248 280 234 228 212 200 211 220 181 261 138 131 120 119 106 72 68 69 73 78 174 179 188 195 199 205 212 213 218 222
296 283 299 294 297 222 219 204 177 229 107 342 162 164 107 103 76 69 63 58 53 63 73 176 193 203 201 206 210 216 219 221
297 298 301 291 270 296 213 211 204 128 58 11 89 68 66 70 74 59 46 49 49 44 61 72 112 171 208 209 211 217 220 225
263 321 286 287 257 268 224 44 60 84 73 83 73 77 72 69 58 53 50 28 28 29 21 357 26 86 151 215 218 220 225 227
281 345 242 55 35 82 69 47 63 74 52 78 81 73 58 66 61 46 33 23 10 360 9 14 311 307 263 163 216 226 228 230
162 274 254 36 9 6 103 40 45 58 37 60 96 65 36 44 64 56 29 11 4 358 357 2 348 295 258 240 236 242 235 234
348 315 305 33 6 330 147 77 41 45 37 27 150 90 57 25 26 31 28 359 4 7 1 345 323 307 304 279 266 257 276 244
270 240 83 347 337 303 66 115 71 69 59 58 77 81 83 57 42 24 8 352 4 9 5 354 343 326 310 294 279 259 250 252
306 167 3 329 38 59 144 89 79 82 61 66 89 78 67 52 51 17 355 358 8 12 13 5 349 334 322 307 292 283 268 247
54 94 107 64 90 92 81 78 80 69 60 54 75 71 57 47 39 24 12 4 5 8 18 16 359 347 328 323 310 292 269 258
94 39 31 20 79 75 63 54 41 44 50 34 42 54 59 55 36 31 21 4 355 358 5 2 5 0 346 323 317 309 288 262
82 22 46 29 23 25 36 22 17 27 26 20 9 18 19 21 19 19 18 11 359 349 348 347 347 356 4 348 321 311 296 281
46 3 348 344 350 357 359 358 333 334 353 15 347 6 3 2 358 2 7 8 6 342 336 337 345 347 355 11 355 324 303 290
358 334 318 314 316 318 332 338 327 314 314 326 317 339 336 338 327 339 341 347 359 346 345 350 345 346 354 7 17 4 331 299
Wind_Speed_850mb
36 39 21 39 25 19 12 16 4 10 16 16 22 23 29 58 52 56 62 82 99 103 103 98 90 86 84 72 65 65 68 74
40 36 46 17 13 14 6 15 11 13 5 10 10 3 23 41 68 79 84 85 89 99 105 101 94 89 85 75 64 60 63 76
19 31 35 30 23 12 11 6 11 6 12 23 16 6 13 10 35 46 27 37 79 90 101 105 97 92 87 83 72 63 58 65
36 33 17 39 27 20 12 19 5 10 12 6 29 34 19 17 60 44 42 35 23 58 94 95 100 88 86 85 80 69 61 60
17 18 25 19 36 21 11 14 17 7 7 6 22 24 49 42 59 58 63 44 41 13 90 90 91 90 82 81 76 68 63 65
11 13 9 6 24 39 18 15 17 15 10 11 16 29 55 45 32 57 62 56 53 56 55 70 84 86 86 85 79 71 67 68
18 28 31 32 33 41 26 16 16 15 8 14 8 35 41 57 55 57 50 50 46 47 50 34 65 76 80 83 87 77 73 74
19 27 28 31 36 30 44 19 12 13 23 8 64 75 74 55 61 53 51 43 30 27 31 38 27 18 70 75 83 81 80 78
13 14 21 21 15 17 11 29 9 22 9 19 36 43 50 56 53 50 44 31 31 28 17 15 17 13 16 42 65 78 82 81
6 11 8 8 45 46 54 46 37 36 24 38 46 58 65 59 47 40 33 32 29 27 22 16 13 15 5 7 19 67 77 83
4 6 14 25 25 25 15 26 30 21 22 24 53 66 55 45 41 32 31 32 32 26 25 23 13 13 21 19 24 25 74 77
6 4 2 12 23 32 16 13 31 31 22 30 18 13 7 27 29 27 24 25 33 34 22 17 21 20 24 23 25 20 29 72
7 9 8 20 28 26 11 8 17 28 28 35 23 17 17 13 17 22 25 26 29 36 32 29 32 32 30 29 26 24 29 44
6 4 1 50 15 11 10 30 29 35 31 25 32 26 21 14 16 17 27 30 31 37 40 36 35 32 30 28 28 30 37 46
9 9 19 46 42 39 28 26 35 33 27 30 28 26 17 15 17 20 25 27 29 33 41 43 41 39 35 36 33 30 34 31
12 19 25 45 33 32 30 27 26 23 24 24 26 19 18 19 27 29 30 35 37 39 39 41 41 38 38 36 37 31 29 33
17 42 17 32 38 37 29 23 21 15 16 20 26 22 28 30 35 37 41 43 44 41 39 38 38 36 35 39 35 34 30 28
6 27 21 24 40 30 27 22 28 28 14 13 11 19 26 27 26 29 29 29 28 31 30 32 34 33 36 31 36 32 32 29
14 32 29 27 32 23 29 30 30 31 26 17 15 9 14 14 13 13 22 22 22 28 28 28 28 29 29 34 34 36 32 36
Wind_Direction_850mb
230 249 236 251 256 223 228 206 244 262 272 47 141 133 122 142 205 177 171 194 191 191 194 193 196 202 204 207 211 210 204 200
245 234 252 219 228 256 254 212 231 284 42 318 45 85 174 179 196 168 186 195 193 188 192 195 196 202 204 208 211 212 210 205
279 234 225 245 243 239 179 203 196 218 269 183 187 251 306 344 151 182 165 208 201 190 192 196 194 198 203 208 208 211 212 213
245 262 230 228 235 204 184 251 256 142 275 205 133 243 34 64 109 94 69 78 83 194 187 186 193 193 201 208 208 212 217 217
268 284 265 234 227 233 191 187 230 162 261 176 134 103 68 72 66 67 73 74 58 108 181 183 188 191 196 208 210 212 218 222
209 241 248 280 234 228 212 200 211 220 181 261 138 131 120 119 106 72 68 69 73 78 174 179 188 195 199 205 212 213 218 222
296 283 299 294 297 222 219 204 177 229 107 342 162 164 107 103 76 69 63 58 53 63 73 176 193 203 201 206 210 216 219 221
297 298 301 291 270 296 213 211 204 128 58 11 89 68 66 70 74 59 46 49 49 44 61 72 112 171 208 209 211 217 220 225
263 321 286 287 257 268 224 44 60 84 73 83 73 77 72 69 58 53 50 28 28 29 21 357 26 86 151 215 218 220 225 227
281 345 242 55 35 82 69 47 63 74 52 78 81 73 58 66 61 46 33 23 10 360 9 14 311 307 263 163 216 226 228 230
162 274 254 36 9 6 103 40 45 58 37 60 96 65 36 44 64 56 29 11 4 358 357 2 348 295 258 240 236 242 235 234
348 315 305 33 6 330 147 77 41 45 37 27 150 90 57 25 26 31 28 359 4 7 1 345 323 307 304 279 266 257 276 244
270 240 83 347 337 303 66 115 71 69 59 58 77 81 83 57 42 24 8 352 4 9 5 354 343 326 310 294 279 259 250 252
306 167 3 329 38 59 144 89 79 82 61 66 89 78 67 52 51 17 355 358 8 12 13 5 349 334 322 307 292 283 268 247
54 94 107 64 90 92 81 78 80 69 60 54 75 71 57 47 39 24 12 4 5 8 18 16 359 347 328 323 310 292 269 258
94 39 31 20 79 75 63 54 41 44 50 34 42 54 59 55 36 31 21 4 355 358 5 2 5 0 346 323 317 309 288 262
82 22 46 29 23 25 36 22 17 27 26 20 9 18 19 21 19 19 18 11 359 349 348 347 347 356 4 348 321 311 296 281
46 3 348 344 350 357 359 358 333 334 353 15 347 6 3 2 358 2 7 8 6 342 336 337 345 347 355 11 355 324 303 290
358 334 318 314 316 318 332 338 327 314 314 326 317 339 336 338 327 339 341 347 359 346 345 350 345 346 354 7 17 4 331 299